DW7888 Weather Reports


time (UTC)temp
C
wind
direction
speed
KPH
gust
KPH
rain 1hr
cm
rain 24hr
cm
rain mn
cm
humidity
%
barometer
mb
20260507093507 13 49 0.0 4.8 0.30 0.58 0.33 92 1011.3
20260507093005 13 164 0.0 3.2 0.30 0.58 0.33 92 1011.5
20260507092512 13 276 0.0 6.4 0.30 0.58 0.33 92 1011.4
20260507092010 13 352 0.0 6.4 0.30 0.56 0.30 92 1011.3
20260507091505 14 350 0.0 8.0 0.20 0.46 0.20 91 1011.1
20260507091008 14 347 1.6 8.0 0.15 0.41 0.15 91 1011.2
20260507090512 14 327 0.0 12.9 0.15 0.41 0.15 91 1011.0
20260507090009 15 269 3.2 12.9 0.13 0.38 0.13 90 1010.9
20260507085506 15 273 0.0 8.0 0.10 0.36 0.10 90 1011.0
20260507085003 15 312 1.6 11.3 0.08 0.33 0.08 89 1011.0
20260507084514 16 333 1.6 16.1 0.05 0.30 0.05 89 1010.9
20260507084007 16 339 1.6 16.1 0.03 0.28 0.03 89 1010.7
20260507083503 17 53 3.2 12.9 0.03 0.28 0.03 88 1010.8
20260507083019 18 301 3.2 11.3 0.03 0.28 0.03 89 1010.4
20260507082506 18 327 3.2 8.0 0.03 0.28 0.03 90 1010.2
20260507082003 18 333 0.0 3.2 0.00 0.25 0.00 90 1010.1
20260507081511 18 5 0.0 4.8 0.00 0.25 0.00 89 1010.2
20260507081014 19 326 0.0 4.8 0.00 0.25 0.00 89 1010.3
20260507080505 19 334 0.0 4.8 0.00 0.25 0.00 89 1010.4
20260507080015 19 5 0.0 1.6 0.00 0.25 0.00 88 1010.3
20260507075507 19 5 0.0 1.6 0.00 0.25 0.00 88 1010.0
20260507075003 19 5 0.0 1.6 0.00 0.25 0.00 88 1009.9
20260507074530 19 5 0.0 1.6 0.00 0.25 0.00 87 1009.6
20260507074008 19 9 0.0 4.8 0.00 0.25 0.00 87 1009.4
20260507073503 19 336 0.0 4.8 0.00 0.25 0.00 87 1009.7
20260507073012 19 338 0.0 4.8 0.00 0.25 0.00 87 1009.7
20260507072509 20 54 0.0 1.6 0.00 0.25 0.00 87 1009.7
20260507072003 20 54 0.0 4.8 0.00 0.25 0.00 87 1009.6
20260507071517 20 54 0.0 4.8 0.00 0.25 0.00 86 1009.7
20260507071009 20 54 0.0 4.8 0.00 0.25 0.00 86 1009.8
20260507070504 20 338 0.0 4.8 0.00 0.25 0.00 86 1009.9
20260507070021 20 197 0.0 4.8 0.00 0.25 0.00 85 1009.6
20260507065508 20 133 0.0 4.8 0.00 0.25 0.00 85 1009.5
20260507065003 20 57 0.0 4.8 0.00 0.25 0.00 85 1009.6
20260507064518 20 167 0.0 1.6 0.00 0.25 0.00 85 1009.4
20260507064010 20 26 0.0 1.6 0.00 0.25 0.00 85 1009.6
20260507063506 20 68 0.0 1.6 0.00 0.25 0.00 85 1009.6
20260507063028 20 59 0.0 1.6 0.00 0.25 0.00 84 1009.4
20260507062509 20 327 0.0 3.2 0.00 0.25 0.00 84 1009.2
20260507062006 20 330 0.0 3.2 0.00 0.25 0.00 84 1009.2
20260507061516 20 82 0.0 1.6 0.00 0.25 0.00 85 1009.1
20260507061013 20 89 0.0 3.2 0.00 0.25 0.00 85 1009.0
20260507060503 20 142 0.0 3.2 0.00 0.25 0.00 85 1009.0
20260507060029 20 117 0.0 1.6 0.00 0.25 0.00 85 1009.0
20260507055509 20 132 0.0 3.2 0.00 0.25 0.00 84 1008.9
20260507055005 20 182 0.0 3.2 0.00 0.25 0.00 84 1009.0
20260507054532 20 144 0.0 3.2 0.00 0.25 0.00 84 1009.2
20260507054009 20 173 0.0 3.2 0.00 0.25 0.00 84 1009.4
20260507053507 20 92 0.0 3.2 0.00 0.25 0.00 84 1009.1
20260507053030 20 126 0.0 3.2 0.00 0.25 0.00 84 1009.1
20260507052511 20 223 0.0 11.3 0.00 0.25 0.00 84 1009.2
20260507052010 20 184 0.0 11.3 0.00 0.25 0.00 84 1009.3
20260507051520 20 198 0.0 4.8 0.00 0.25 0.00 84 1009.4
20260507051016 20 169 0.0 4.8 0.00 0.25 0.00 84 1009.7
20260507050508 20 163 0.0 6.4 0.00 0.25 0.00 84 1009.8
20260507050046 20 123 0.0 6.4 0.00 0.25 0.00 84 1010.0
20260507045511 20 130 0.0 6.4 0.00 0.25 0.00 84 1010.2
20260507045008 20 5 1.6 6.4 0.00 0.25 0.00 84 1010.3
20260507044525 20 75 0.0 6.4 0.00 0.25 0.00 84 1010.4
20260507044010 20 203 0.0 6.4 0.00 0.25 0.00 84 1010.5
20260507043505 20 43 0.0 6.4 0.00 0.25 0.00 84 1010.4
20260507043028 20 226 1.6 8.0 0.00 0.25 0.00 84 1010.3
20260507042509 20 224 0.0 8.0 0.00 0.25 0.00 84 1010.6
20260507042007 20 276 0.0 3.2 0.00 0.25 0.00 85 1010.6
20260507041527 20 140 0.0 3.2 0.00 0.25 0.00 85 1010.6
20260507041010 20 132 0.0 4.8 0.00 0.25 0.00 85 1010.5
20260507040512 20 96 1.6 4.8 0.00 0.25 0.00 85 1010.2
20260507040026 20 91 0.0 4.8 0.00 0.25 0.00 85 1010.2
20260507035510 20 91 0.0 4.8 0.00 0.25 0.25 85 1010.3
20260507035007 20 76 0.0 3.2 0.00 0.25 0.25 85 1010.3
20260507034533 20 267 0.0 3.2 0.00 0.25 0.25 85 1010.5
20260507034017 20 194 0.0 3.2 0.00 0.25 0.25 85 1010.7
20260507033508 20 19 0.0 4.8 0.00 0.25 0.25 85 1010.7
20260507033031 20 309 0.0 4.8 0.00 0.25 0.25 85 1010.5
20260507032507 20 93 0.0 4.8 0.00 0.25 0.25 85 1010.4
20260507032007 20 147 0.0 6.4 0.00 0.25 0.25 84 1010.1
20260507031532 20 91 1.6 6.4 0.00 0.25 0.25 84 1010.1
20260507031010 20 175 0.0 9.7 0.00 0.25 0.25 85 1010.0
20260507030510 20 127 0.0 9.7 0.00 0.25 0.25 85 1009.9
20260507030033 20 167 0.0 4.8 0.00 0.25 0.25 85 1010.0
20260507025505 20 143 0.0 4.8 0.00 0.25 0.25 85 1009.9
20260507025002 20 172 0.0 6.4 0.00 0.25 0.25 84 1010.0
20260507024510 20 199 0.0 6.4 0.00 0.25 0.25 84 1009.7
20260507024004 20 134 0.0 11.3 0.00 0.25 0.25 84 1009.8
20260507023505 20 100 1.6 11.3 0.00 0.25 0.25 84 1009.9
20260507023006 20 180 1.6 11.3 0.00 0.25 0.25 84 1010.0
20260507022505 20 145 1.6 9.7 0.00 0.25 0.25 84 1009.9
20260507022002 20 161 1.6 6.4 0.00 0.25 0.25 84 1010.1
20260507021517 20 159 0.0 11.3 0.00 0.25 0.25 84 1010.1
20260507021004 20 163 0.0 11.3 0.00 0.25 0.25 84 1010.2
20260507020503 20 167 0.0 6.4 0.00 0.25 0.25 84 1010.3
20260507020006 20 209 0.0 6.4 0.00 0.25 0.25 84 1010.4
20260507015506 20 178 1.6 4.8 0.00 0.25 0.25 84 1010.4
20260507015001 20 188 0.0 8.0 0.00 0.25 0.25 84 1010.4
20260507014507 20 89 0.0 6.4 0.00 0.25 0.25 83 1010.5
20260507014013 20 189 0.0 3.2 0.00 0.25 0.25 83 1010.6
20260507013502 20 119 0.0 4.8 0.00 0.25 0.25 83 1010.4
20260507013010 20 177 0.0 4.8 0.00 0.25 0.25 83 1010.5
20260507012506 20 126 0.0 8.0 0.00 0.25 0.25 83 1010.4
20260507012004 20 155 1.6 8.0 0.00 0.25 0.25 83 1010.3
20260507011516 20 150 1.6 6.4 0.00 0.25 0.25 84 1010.3
20260507011004 20 158 1.6 4.8 0.00 0.25 0.25 84 1010.3
20260507010510 20 193 0.0 3.2 0.00 0.25 0.25 84 1010.3
20260507010026 20 163 0.0 3.2 0.00 0.25 0.25 84 1010.2
20260507005508 20 161 0.0 3.2 0.00 0.25 0.25 84 1010.0
20260507005005 20 137 0.0 3.2 0.00 0.25 0.25 84 1010.0
20260507004516 20 218 0.0 3.2 0.00 0.25 0.25 83 1010.1
20260507004007 20 61 0.0 4.8 0.00 0.25 0.25 83 1010.3
20260507003502 20 105 0.0 4.8 0.00 0.25 0.25 83 1010.2
20260507003016 20 159 0.0 1.6 0.00 0.25 0.25 83 1010.4
20260507002509 20 157 0.0 1.6 0.00 0.25 0.25 82 1010.4
20260507002004 20 148 0.0 4.8 0.00 0.25 0.25 82 1010.4
20260507001516 20 86 0.0 4.8 0.00 0.25 0.25 82 1010.4
20260507001007 20 215 0.0 4.8 0.00 0.25 0.25 82 1010.4
20260507000503 20 69 0.0 3.2 0.00 0.25 0.25 81 1010.5
20260507000015 20 93 0.0 3.2 0.00 0.25 0.25 81 1010.5
20260506235508 20 259 0.0 6.4 0.00 0.25 0.25 81 1010.4
20260506235007 20 180 1.6 6.4 0.00 0.25 0.25 80 1010.3
20260506234516 21 125 0.0 4.8 0.00 0.25 0.25 80 1010.2
20260506234006 21 83 0.0 4.8 0.00 0.25 0.25 80 1010.2
20260506233506 21 121 0.0 4.8 0.00 0.25 0.25 80 1010.0
20260506233016 21 112 0.0 6.4 0.00 0.25 0.25 80 1010.0
20260506232508 21 129 0.0 6.4 0.00 0.25 0.25 79 1010.1
20260506232008 21 37 0.0 6.4 0.00 0.25 0.25 79 1010.1
20260506231524 21 205 0.0 6.4 0.00 0.25 0.25 78 1010.0
20260506231008 21 186 1.6 9.7 0.00 0.25 0.25 78 1009.9
20260506230504 21 215 0.0 9.7 0.00 0.25 0.25 78 1010.0
20260506230017 21 119 0.0 4.8 0.00 0.25 0.25 78 1009.9
20260506225509 21 120 0.0 3.2 0.00 0.25 0.25 78 1010.0
20260506225005 21 130 0.0 3.2 0.00 0.25 0.25 78 1010.0
20260506224521 21 186 0.0 4.8 0.00 0.25 0.25 78 1010.0
20260506224007 21 152 0.0 6.4 0.00 0.25 0.25 78 1010.1
20260506223506 21 124 0.0 6.4 0.00 0.25 0.25 77 1010.0
20260506223020 21 79 0.0 6.4 0.00 0.25 0.25 77 1010.1
20260506222509 21 168 1.6 6.4 0.00 0.25 0.25 77 1010.0
20260506222010 21 182 1.6 6.4 0.00 0.25 0.25 77 1010.2
20260506221518 21 148 1.6 6.4 0.00 0.25 0.25 76 1010.2
20260506221007 21 204 1.6 6.4 0.00 0.25 0.25 77 1010.3
20260506220507 21 111 1.6 6.4 0.00 0.25 0.25 76 1010.0
20260506220028 21 108 0.0 4.8 0.00 0.25 0.25 76 1010.0
20260506215508 21 199 0.0 6.4 0.00 0.25 0.25 75 1010.0
20260506215012 21 125 0.0 8.0 0.00 0.25 0.25 76 1010.0
20260506214524 21 185 1.6 8.0 0.00 0.25 0.25 75 1009.9
20260506214006 21 200 1.6 8.0 0.00 0.25 0.25 77 1009.9
20260506213511 21 178 0.0 8.0 0.00 0.25 0.25 76 1010.0
20260506213028 21 343 1.6 8.0 0.00 0.25 0.25 75 1010.1
20260506212505 21 189 3.2 11.3 0.00 0.25 0.25 77 1010.1
20260506212013 21 270 1.6 11.3 0.00 0.25 0.25 77 1010.1
20260506211524 21 242 1.6 6.4 0.00 0.25 0.25 77 1010.3
20260506211006 21 83 1.6 8.0 0.00 0.25 0.25 77 1010.2
20260506210505 21 256 1.6 8.0 0.00 0.25 0.25 76 1010.1
20260506210032 21 265 0.0 9.7 0.00 0.25 0.25 77 1010.2
20260506205505 21 163 1.6 9.7 0.00 0.25 0.25 79 1010.2
20260506205008 21 158 1.6 9.7 0.00 0.25 0.25 78 1010.1
20260506204536 21 238 1.6 6.4 0.00 0.25 0.25 78 1010.2
20260506204006 21 116 1.6 4.8 0.00 0.25 0.25 80 1010.1
20260506203511 21 192 1.6 4.8 0.00 0.25 0.25 81 1010.1
20260506203028 21 130 0.0 4.8 0.00 0.25 0.25 82 1010.1
20260506202505 20 76 0.0 4.8 0.00 0.25 0.25 82 1010.2
20260506202009 20 294 0.0 3.2 0.00 0.25 0.25 83 1010.2
20260506201526 20 298 0.0 3.2 0.00 0.25 0.25 82 1010.2
20260506201008 20 32 0.0 6.4 0.00 0.25 0.25 82 1010.3
20260506200508 20 37 0.0 6.4 0.00 0.25 0.25 81 1010.3
20260506200023 20 11 0.0 4.8 0.00 0.25 0.25 81 1010.2
20260506195505 20 352 0.0 3.2 0.00 0.25 0.25 83 1010.5
20260506195010 20 24 0.0 4.8 0.00 0.25 0.25 83 1009.8
20260506194525 20 98 0.0 6.4 0.00 0.25 0.25 82 1009.7
20260506194006 20 238 0.0 6.4 0.00 0.25 0.25 81 1009.6
20260506193509 20 163 1.6 6.4 0.00 0.25 0.25 81 1009.4
20260506193025 20 14 1.6 6.4 0.00 0.25 0.25 82 1009.5
20260506192507 20 102 0.0 4.8 0.00 0.25 0.25 83 1009.6
20260506192011 20 117 0.0 9.7 0.00 0.25 0.25 85 1009.9
20260506191527 19 219 0.0 9.7 0.00 0.25 0.25 84 1010.0
20260506191005 19 173 1.6 9.7 0.00 0.25 0.25 84 1010.3
20260506190509 19 145 0.0 9.7 0.00 0.25 0.25 85 1010.4
20260506190023 18 212 1.6 8.0 0.00 0.25 0.25 86 1010.5
20260506185507 18 82 0.0 3.2 0.00 0.25 0.25 87 1010.7
20260506185011 18 38 0.0 9.7 0.00 0.25 0.25 87 1010.9
20260506184527 18 117 0.0 9.7 0.00 0.25 0.25 87 1010.6
20260506184008 18 133 1.6 9.7 0.00 0.25 0.25 88 1010.6
20260506183509 18 138 0.0 6.4 0.00 0.25 0.25 88 1010.9
20260506183026 18 40 0.0 8.0 0.00 0.25 0.25 87 1011.0
20260506182507 18 79 1.6 9.7 0.00 0.25 0.25 87 1010.9
20260506182011 18 196 0.0 9.7 0.00 0.25 0.25 87 1011.2
20260506181529 18 120 1.6 8.0 0.00 0.25 0.25 86 1011.4
20260506181011 18 59 1.6 8.0 0.00 0.25 0.25 85 1011.5
20260506180517 18 9 0.0 8.0 0.00 0.25 0.25 86 1011.6
20260506180028 18 136 3.2 8.0 0.00 0.25 0.25 86 1011.6
20260506175509 18 189 1.6 9.7 0.00 0.25 0.25 86 1011.7
20260506175005 18 76 1.6 9.7 0.00 0.25 0.25 85 1011.8
20260506174514 18 169 3.2 9.7 0.00 0.25 0.25 85 1011.7
20260506174007 18 94 1.6 11.3 0.00 0.25 0.25 85 1011.6
20260506173501 18 195 3.2 11.3 0.00 0.25 0.25 85 1011.7
20260506173015 18 126 1.6 12.9 0.00 0.25 0.25 85 1011.6
20260506172507 18 106 0.0 12.9 0.00 0.25 0.25 86 1011.6
20260506172004 18 118 0.0 3.2 0.00 0.25 0.25 86 1011.5
20260506171525 18 144 0.0 11.3 0.00 0.25 0.25 86 1011.6
20260506171010 18 196 0.0 11.3 0.00 0.25 0.25 86 1011.5
20260506170503 18 114 1.6 9.7 0.00 0.25 0.25 86 1011.4
20260506170016 18 178 0.0 9.7 0.00 0.25 0.25 87 1011.6
20260506165508 18 234 1.6 9.7 0.00 0.25 0.25 87 1012.0
20260506165005 18 61 0.0 6.4 0.00 0.25 0.25 87 1012.0
20260506164520 17 211 0.0 16.1 0.00 0.25 0.25 87 1011.8
20260506164013 17 102 0.0 16.1 0.00 0.25 0.25 87 1011.8
20260506163506 17 140 3.2 14.5 0.00 0.25 0.25 87 1012.0
20260506163018 17 296 1.6 4.8 0.00 0.25 0.25 88 1012.0
20260506162503 17 123 0.0 6.4 0.00 0.25 0.25 88 1012.1
20260506162005 17 188 0.0 6.4 0.00 0.25 0.25 88 1011.9
20260506161523 17 153 1.6 9.7 0.00 0.25 0.25 88 1011.7
20260506161003 17 218 1.6 11.3 0.00 0.25 0.25 89 1011.7
20260506160506 17 308 0.0 11.3 0.00 0.25 0.25 89 1011.7
20260506160032 17 115 3.2 16.1 0.00 0.25 0.25 89 1011.7
20260506155503 17 209 4.8 16.1 0.00 0.25 0.25 89 1011.7
20260506155004 17 186 1.6 14.5 0.00 0.25 0.25 89 1011.8
20260506154527 17 117 1.6 14.5 0.03 0.25 0.25 89 1011.9
20260506154004 17 94 0.0 14.5 0.03 0.25 0.25 90 1012.1
20260506153504 17 253 1.6 6.4 0.03 0.25 0.25 90 1012.1
20260506153021 17 127 1.6 9.7 0.08 0.25 0.25 90 1012.3
20260506152502 17 142 0.0 8.0 0.10 0.25 0.25 90 1012.4
20260506152005 17 178 1.6 6.4 0.13 0.25 0.25 90 1012.4
20260506151532 17 221 0.0 4.8 0.13 0.25 0.25 91 1012.4
20260506151002 17 113 0.0 6.4 0.18 0.25 0.25 91 1012.4
20260506150509 16 167 0.0 6.4 0.20 0.25 0.25 91 1012.5
20260506150029 16 190 0.0 6.4 0.23 0.25 0.25 91 1012.4
20260506145502 16 158 0.0 6.4 0.23 0.25 0.25 91 1012.4
20260506145008 16 190 0.0 6.4 0.23 0.25 0.25 91 1012.4
20260506144524 16 126 1.6 6.4 0.23 0.23 0.23 91 1012.4
20260506144009 16 144 0.0 4.8 0.23 0.23 0.23 90 1012.4
20260506143510 16 200 0.0 4.8 0.23 0.23 0.23 90 1012.5
20260506143038 16 147 0.0 4.8 0.18 0.18 0.18 89 1012.7
20260506142505 16 109 0.0 4.8 0.15 0.15 0.15 89 1012.8
20260506142009 16 175 0.0 3.2 0.13 0.13 0.13 88 1012.9
20260506141525 16 163 0.0 4.8 0.13 0.13 0.13 87 1012.8
20260506141006 17 121 0.0 4.8 0.08 0.08 0.08 87 1012.8
20260506140508 17 157 0.0 8.0 0.05 0.05 0.05 86 1012.7
20260506140032 17 175 0.0 8.0 0.03 0.03 0.03 85 1012.6
20260506135507 17 167 1.6 9.7 0.03 0.03 0.03 83 1012.5
20260506135009 17 121 1.6 9.7 0.03 0.03 0.03 82 1012.5
20260506134527 17 84 3.2 12.9 0.00 0.00 0.00 80 1012.5
20260506134006 18 163 0.0 12.9 0.00 0.00 0.00 78 1012.5
20260506133507 18 107 0.0 16.1 0.00 0.00 0.00 76 1012.6
20260506133026 18 143 0.0 16.1 0.00 0.00 0.00 76 1012.5
20260506132513 18 114 3.2 16.1 0.00 0.00 0.00 75 1012.5
20260506132009 18 211 4.8 12.9 0.00 0.00 0.00 75 1012.5
20260506131529 18 150 1.6 4.8 0.00 0.00 0.00 75 1012.5
20260506131008 18 95 0.0 6.4 0.00 0.00 0.00 75 1012.7
20260506130507 18 139 0.0 12.9 0.00 0.00 0.00 75 1012.6
20260506130025 18 194 1.6 12.9 0.00 0.00 0.00 75 1012.5
20260506125505 18 133 3.2 14.5 0.00 0.00 0.00 76 1012.4
20260506125008 18 143 1.6 14.5 0.00 0.00 0.00 76 1012.4
20260506124525 18 142 4.8 12.9 0.00 0.00 0.00 76 1012.3
20260506124006 18 203 1.6 9.7 0.00 0.00 0.00 76 1012.4
20260506123510 18 166 1.6 9.7 0.00 0.00 0.00 76 1012.4
20260506123025 17 108 0.0 14.5 0.00 0.00 0.00 76 1012.3
20260506122504 17 167 0.0 14.5 0.00 0.00 0.00 76 1012.3
20260506122012 17 67 1.6 12.9 0.00 0.00 0.00 76 1012.2
20260506121528 18 202 4.8 14.5 0.00 0.00 0.00 75 1012.2
20260506121009 18 122 3.2 14.5 0.00 0.00 0.00 75 1012.2
20260506120514 18 150 3.2 14.5 0.00 0.00 0.00 75 1012.2
20260506120026 18 206 3.2 11.3 0.00 0.00 0.00 75 1012.3
20260506115508 18 172 1.6 6.4 0.00 0.00 0.00 75 1012.2
20260506115006 18 185 0.0 8.0 0.00 0.00 0.00 75 1012.2
20260506114539 18 191 1.6 16.1 0.00 0.00 0.00 75 1012.2
20260506114007 18 126 4.8 16.1 0.00 0.00 0.00 75 1012.2
20260506113512 18 96 0.0 8.0 0.00 0.00 0.00 76 1012.2
20260506113030 17 92 0.0 8.0 0.00 0.00 0.00 76 1012.2
20260506112511 17 145 1.6 9.7 0.00 0.00 0.00 76 1012.2
20260506112008 17 198 3.2 9.7 0.00 0.00 0.00 75 1012.1
20260506111527 17 278 3.2 12.9 0.00 0.00 0.00 75 1012.1
20260506111008 17 160 4.8 12.9 0.00 0.00 0.00 75 1012.0
20260506110516 17 223 3.2 11.3 0.00 0.00 0.00 76 1011.9
20260506110034 17 205 3.2 11.3 0.00 0.00 0.00 75 1011.9
20260506105506 17 98 3.2 11.3 0.00 0.00 0.00 75 1012.1
20260506105013 17 170 1.6 9.7 0.00 0.00 0.00 75 1012.1
20260506104513 17 120 1.6 12.9 0.00 0.00 0.00 75 1012.2
20260506104010 17 146 1.6 12.9 0.00 0.00 0.00 75 1012.2
20260506103511 17 126 4.8 9.7 0.00 0.00 0.00 75 1012.2
20260506103017 17 175 1.6 6.4 0.00 0.00 0.00 75 1012.4
20260506102509 17 192 0.0 6.4 0.00 0.00 0.00 75 1012.5
20260506102012 17 194 1.6 9.7 0.00 0.00 0.00 75 1012.4
20260506101532 17 119 1.6 9.7 0.00 0.00 0.00 75 1012.3
20260506101012 17 193 0.0 6.4 0.00 0.00 0.00 75 1012.2
20260506100513 17 85 0.0 6.4 0.00 0.00 0.00 75 1012.2
20260506100015 17 56 1.6 6.4 0.00 0.00 0.00 75 1012.1
20260506095508 17 167 0.0 4.8 0.00 0.00 0.00 75 1012.1
20260506095011 17 239 0.0 4.8 0.00 0.00 0.00 75 1012.1
20260506094518 17 201 0.0 6.4 0.00 0.00 0.00 75 1012.1
20260506094010 17 194 1.6 9.7 0.00 0.00 0.00 75 1012.1